Regional Weather Roundup
Issued by NWS

Home | Current Version | Previous Version | Graphics & Text | Print | Product List | Glossary On
Versions: 1 2 3 4 5 6 7 8 9 10 11 12 13 14 15 16 17 18 19 20 21 22 23 24 25 26 27 28 29 30 31 32 33 34 35 36 37 38 39 40 41 42 43 44 45 46 47 48 49 50
000
ASUS44 KMEG 090010
RWRTN
TENNESSEE HOURLY STATE WEATHER ROUNDUP
NATIONAL WEATHER SERVICE MEMPHIS TN
600 PM CST THU DEC 08 2016

TNZ002-004-019-021-049-052-054-088>092-090100-
WEST TENNESSEE

CITY           SKY/WX    TMP DP  RH WIND       PRES   REMARKS
MEMPHIS INTL   PTCLDY    33  16  49 N7        30.54R WCI  27
NWS MEMPHIS      N/A     32 N/A N/A MISG        N/A
JACKSON        PTCLDY    31  19  61 NW6       30.53R WCI  25
DYERSBURG      CLEAR     28  19  69 CALM      30.53R
UNION CITY     CLEAR     28  16  59 CALM      30.51R
PARIS          CLEAR     25  12  58 CALM      30.49R
HUNTINGDON     CLEAR     30  16  55 W3        30.50R
LEXINGTON      CLEAR     30  12  47 NW7       30.48R WCI  23
$$

TNZ008-025-027-028-033-062-065-066-090100-
NORTH MIDDLE TENNESSEE

CITY           SKY/WX    TMP DP  RH WIND       PRES   REMARKS
NASHVILLE      MOCLDY    33  14  45 NW9       30.46R WCI  25
PORTLAND       CLEAR     28  16  59 NW5       30.44R WCI  23
CLARKSVILLE    CLEAR     29  13  51 W5        30.47R WCI  24
SMYRNA         PTCLDY    32  19  58 N7        30.47R WCI  26
GALLATIN       CLEAR     30  18  59 VRB5      30.48R WCI  25
CROSSVILLE     CLEAR     29  14  53 NW8       30.34R WCI  21
$$

TNZ061-075-076-078-094-096-097-090100-
SOUTH MIDDLE TENNESSEE

CITY           SKY/WX    TMP DP  RH WIND       PRES   REMARKS
FAYETTEVILLE   CLEAR     36  18  48 NW7       30.40S WCI  30
TULLAHOMA      CLEAR     30  12  47 N7        30.40R WCI  23
WINCHESTER     CLEAR     34  18  51 N5        30.40R WCI  30
MCMINNVILLE    CLEAR     30  16  55 VRB5        N/A  WCI  25
COLUMBIA       CLEAR     34  12  40 NW5       30.44R WCI  30
SHELBYVILLE    CLEAR     30  19  64 N6        30.43R WCI  24
$$

TNZ017-018-042-046-047-090100-
NORTHEAST TENNESSEE

CITY           SKY/WX    TMP DP  RH WIND       PRES   REMARKS
TRI CITIES     PTCLDY    34  15  46 W7        30.26R WCI  28
ELIZABETHTON   CLEAR     36  12  38 VRB5      30.25R WCI  32
$$

TNZ012-013-036-069-073-074-090100-
CENTRAL EAST TENNESSEE

CITY           SKY/WX    TMP DP  RH WIND       PRES   REMARKS
KNOXVILLE      MOCLDY    38  13  35 W10       30.32R WCI  31
OAK RIDGE      CLEAR     38  14  37 W5        30.36R WCI  34
DOWNTOWN KNOXV CLEAR     39  14  35 VRB3      30.34R
GATLINBURG     CLEAR     36  12  38 W3        30.31S
MORRISTOWN     CLEAR     36  12  38 N10       30.30R WCI  28
JACKSBORO      CLEAR     34  18  51 VRB6G12   30.38R WCI  29
$$

TNZ083-085-099-090100-
SOUTHEAST TENNESSEE

CITY           SKY/WX    TMP DP  RH WIND       PRES   REMARKS
CHATTANOOGA    PTCLDY    38  15  39 NW6       30.38R WCI  33
$$

SKY/WX REPORTED AS FAIR MEANS FEW OR NO CLOUDS BELOW
12 THOUSAND FEET.




USA.gov is the U.S. government's official web portal to all federal, state and local government web resources and services.